Estación de El Refugio
Ultimos registro cada 15 minutos 36
| N° | Estación | Fecha / Hora | Temperatura | Humedad | Lluvia | Velocidad | Dirección | Radiación | Presion |
| 36 | El Refugio | 10-05-2026 08:45 | 8,2 | 82 | 0 | 0 | 68 | 183 | 1035,8 |
| 35 | El Refugio | 10-05-2026 08:30 | 5,9 | 89 | 0 | 0 | 68 | 171 | 1035,7 |
| 34 | El Refugio | 10-05-2026 08:15 | 4,1 | 89 | 0 | 0 | 68 | 116 | 1035,5 |
| 33 | El Refugio | 10-05-2026 08:00 | 3,4 | 87 | 0 | 0 | 71 | 32 | 1035,4 |
| 32 | El Refugio | 10-05-2026 07:45 | 3,4 | 86 | 0 | 0 | 71 | 9 | 1035,2 |
| 31 | El Refugio | 10-05-2026 07:30 | 3,4 | 87 | 0 | 0 | 71 | 5 | 1035,1 |
| 30 | El Refugio | 10-05-2026 07:15 | 3,2 | 87 | 0 | 0 | 71 | 0 | 1035,2 |
| 29 | El Refugio | 10-05-2026 07:00 | 3,2 | 87 | 0 | 0 | 73 | 0 | 1035,2 |
| 28 | El Refugio | 10-05-2026 06:45 | 3,2 | 88 | 0 | 0 | 73 | 0 | 1035 |
| 27 | El Refugio | 10-05-2026 06:30 | 3,4 | 86 | 0 | 0 | 73 | 0 | 1035 |
| 26 | El Refugio | 10-05-2026 06:15 | 3,7 | 86 | 0 | 0 | 73 | 0 | 1035,2 |
| 25 | El Refugio | 10-05-2026 06:00 | 3,8 | 87 | 0 | 0 | 73 | 0 | 1035,1 |
| 24 | El Refugio | 10-05-2026 05:45 | 3,8 | 87 | 0 | 0 | 73 | 0 | 1035 |
| 23 | El Refugio | 10-05-2026 05:30 | 4 | 86 | 0 | 0 | 73 | 0 | 1034,9 |
| 22 | El Refugio | 10-05-2026 05:15 | 4,2 | 86 | 0 | 0 | 73 | 0 | 1035 |
| 21 | El Refugio | 10-05-2026 05:00 | 4,2 | 87 | 0 | 0 | 73 | 0 | 1035 |
| 20 | El Refugio | 10-05-2026 04:45 | 4,2 | 87 | 0 | 0 | 73 | 0 | 1034,9 |
| 19 | El Refugio | 10-05-2026 04:30 | 4,3 | 87 | 0 | 0 | 73 | 0 | 1034,9 |
| 18 | El Refugio | 10-05-2026 04:15 | 4,6 | 87 | 0 | 0 | 73 | 0 | 1034,9 |
| 17 | El Refugio | 10-05-2026 04:00 | 4,6 | 87 | 0 | 0 | 73 | 0 | 1035 |
| 16 | El Refugio | 10-05-2026 03:45 | 4,7 | 88 | 0 | 0 | 73 | 0 | 1035 |
| 15 | El Refugio | 10-05-2026 03:30 | 4,6 | 88 | 0 | 0 | 73 | 0 | 1034,9 |
| 14 | El Refugio | 10-05-2026 03:15 | 4,6 | 87 | 0 | 0 | 110 | 0 | 1034,9 |
| 13 | El Refugio | 10-05-2026 03:00 | 4,7 | 86 | 0 | 0 | 110 | 0 | 1035,2 |
| 12 | El Refugio | 10-05-2026 02:45 | 5,1 | 86 | 0 | 0 | 110 | 0 | 1035,5 |
| 11 | El Refugio | 10-05-2026 02:30 | 5,2 | 86 | 0 | 0 | 110 | 0 | 1035,5 |
| 10 | El Refugio | 10-05-2026 02:15 | 5,3 | 86 | 0 | 0 | 110 | 0 | 1035,7 |
| 9 | El Refugio | 10-05-2026 02:00 | 5,3 | 86 | 0 | 0 | 110 | 0 | 1035,8 |
| 8 | El Refugio | 10-05-2026 01:45 | 5,5 | 86 | 0 | 0 | 110 | 0 | 1035,8 |
| 7 | El Refugio | 10-05-2026 01:30 | 5,6 | 86 | 0 | 0 | 110 | 0 | 1035,8 |
| 6 | El Refugio | 10-05-2026 01:15 | 5,7 | 86 | 0 | 0 | 110 | 0 | 1035,9 |
| 5 | El Refugio | 10-05-2026 01:00 | 5,8 | 85 | 0 | 0 | 110 | 0 | 1035,8 |
| 4 | El Refugio | 10-05-2026 00:45 | 6,1 | 85 | 0 | 0 | 110 | 0 | 1035,8 |
| 3 | El Refugio | 10-05-2026 00:30 | 6,4 | 84 | 0 | 0 | 110 | 0 | 1035,9 |
| 2 | El Refugio | 10-05-2026 00:15 | 6,8 | 84 | 0 | 0 | 110 | 0 | 1035,9 |
| 1 | El Refugio | 10-05-2026 00:00 | 7,1 | 83 | 0 | 0 | 110 | 0 | 1036 |